When you browse on this site, cookies collect data to enhance your experience and personalize the content and advertising you see.
Visit our Privacy Policy to learn more. By continuing to use the site, you agree to this use of cookies and data.
  • In Hungary
  • List of Countries
  • For 7 days
  • Water Temperature
  • Weather Map
  • News
  • Weather Widgets
  • user-avatar
    Login

    Hourly Weather Zvony

    Today, 23 October, Wednesday

    Time Temperature Precipitation Wind Pressure Humidity
    00:00 +11°C° 0 mm 4 mps 750 mmHg 86%
    01:00 +11°C° 0 mm 4 mps 750 mmHg 86%
    02:00 +11°C° 0 mm 4 mps 750 mmHg 86%
    03:00 +11°C° 0 mm 4 mps 750 mmHg 85%
    04:00 +10°C° 0 mm 4 mps 750 mmHg 84%
    05:00 +10°C° 0 mm 4 mps 750 mmHg 83%
    06:00 +10°C° 0 mm 4 mps 750 mmHg 85%
    07:00 +10°C° 0 mm 4 mps 750 mmHg 86%
    08:00 +8°C° 0 mm 4 mps 751 mmHg 88%
    09:00 +10°C° 0 mm 4 mps 751 mmHg 84%
    10:00 +11°C° 0 mm 4 mps 751 mmHg 80%
    11:00 +11°C° 0 mm 4 mps 751 mmHg 75%
    12:00 +11°C° 0 mm 4 mps 752 mmHg 76%
    13:00 +11°C° 0 mm 3 mps 752 mmHg 76%
    14:00 +11°C° 0 mm 3 mps 752 mmHg 76%
    15:00 +10°C° 0 mm 3 mps 752 mmHg 79%
    16:00 +10°C° 0 mm 3 mps 752 mmHg 82%
    17:00 +9°C° 0 mm 2 mps 752 mmHg 84%
    18:00 +9°C° 0 mm 2 mps 752 mmHg 84%
    19:00 +9°C° 0 mm 2 mps 752 mmHg 83%
    20:00 +9°C° 0 mm 2 mps 753 mmHg 82%
    21:00 +9°C° 0 mm 2 mps 753 mmHg 83%
    22:00 +9°C° 0 mm 2 mps 753 mmHg 83%
    23:00 +10°C° 0 mm 1 mps 752 mmHg 84%

    Tomorrow, 24 October, Thursday

    Time Temperature Precipitation Wind Pressure Humidity
    00:00 +10°C° 0 mm 1 mps 753 mmHg 85%
    01:00 +10°C° 0 mm 1 mps 753 mmHg 85%
    02:00 +10°C° 0 mm 1 mps 753 mmHg 86%
    03:00 +9°C° 0 mm 1 mps 753 mmHg 88%
    04:00 +8°C° 0 mm 2 mps 753 mmHg 89%
    05:00 +8°C° 0 mm 2 mps 753 mmHg 90%
    06:00 +7°C° 0 mm 2 mps 753 mmHg 92%
    07:00 +7°C° 0 mm 2 mps 753 mmHg 94%
    08:00 +6°C° 0 mm 2 mps 753 mmHg 96%
    09:00 +7°C° 0 mm 2 mps 753 mmHg 90%
    10:00 +8°C° 0 mm 2 mps 753 mmHg 85%
    11:00 +11°C° 0 mm 1 mps 753 mmHg 79%
    12:00 +10°C° 0 mm 2 mps 753 mmHg 78%
    13:00 +10°C° 0 mm 2 mps 753 mmHg 76%
    14:00 +12°C° 0 mm 2 mps 753 mmHg 75%
    15:00 +11°C° 0 mm 1 mps 753 mmHg 79%
    16:00 +10°C° 0 mm 1 mps 753 mmHg 84%
    17:00 +9°C° 0 mm 1 mps 753 mmHg 89%
    18:00 +8°C° 0 mm 1 mps 753 mmHg 91%
    19:00 +8°C° 0 mm 1 mps 753 mmHg 92%
    20:00 +8°C° 0 mm 1 mps 753 mmHg 94%
    21:00 +7°C° 0 mm 1 mps 753 mmHg 94%
    22:00 +7°C° 0 mm 1 mps 753 mmHg 94%
    23:00 +7°C° 0 mm 1 mps 753 mmHg 94%

    Day after tomorrow, 25 October, Friday

    Time Temperature Precipitation Wind Pressure Humidity
    00:00 +6°C° 0 mm 2 mps 753 mmHg 94%
    01:00 +6°C° 0 mm 2 mps 753 mmHg 94%
    02:00 +6°C° 0 mm 2 mps 753 mmHg 94%
    03:00 +6°C° 0 mm 2 mps 752 mmHg 94%
    04:00 +6°C° 0 mm 2 mps 752 mmHg 94%
    05:00 +6°C° 0 mm 2 mps 751 mmHg 93%
    06:00 +5°C° 0 mm 3 mps 751 mmHg 91%
    07:00 +7°C° 0 mm 3 mps 751 mmHg 89%
    08:00 +7°C° 0 mm 3 mps 750 mmHg 86%
    09:00 +8°C° 0 mm 4 mps 750 mmHg 83%
    10:00 +10°C° 0 mm 4 mps 750 mmHg 80%
    11:00 +12°C° 0 mm 5 mps 749 mmHg 76%
    12:00 +12°C° 0 mm 5 mps 749 mmHg 75%
    13:00 +13°C° 0 mm 5 mps 748 mmHg 74%
    14:00 +14°C° 0 mm 5 mps 748 mmHg 73%
    15:00 +13°C° 0 mm 5 mps 748 mmHg 77%
    16:00 +13°C° 0 mm 4 mps 748 mmHg 81%
    17:00 +12°C° 0 mm 4 mps 748 mmHg 86%
    18:00 +12°C° 0 mm 4 mps 748 mmHg 86%
    19:00 +12°C° 0 mm 3 mps 748 mmHg 87%
    20:00 +12°C° 0 mm 3 mps 748 mmHg 88%
    21:00 +12°C° 0 mm 3 mps 749 mmHg 88%
    22:00 +11°C° 0 mm 3 mps 749 mmHg 89%
    23:00 +10°C° 0 mm 4 mps 749 mmHg 89%

    26 October, Saturday

    Time Temperature Precipitation Wind Pressure Humidity
    00:00 +10°C° 0 mm 3 mps 749 mmHg 89%
    01:00 +9°C° 0 mm 3 mps 750 mmHg 89%
    02:00 +8°C° 0 mm 3 mps 750 mmHg 88%
    03:00 +9°C° 0 mm 3 mps 750 mmHg 88%
    04:00 +9°C° 0 mm 3 mps 750 mmHg 88%
    05:00 +9°C° 0 mm 3 mps 750 mmHg 88%
    06:00 +9°C° 0 mm 3 mps 750 mmHg 89%
    07:00 +7°C° 0 mm 4 mps 750 mmHg 90%
    08:00 +7°C° 0 mm 4 mps 750 mmHg 90%
    09:00 +8°C° 0 mm 4 mps 750 mmHg 85%
    10:00 +10°C° 0 mm 4 mps 750 mmHg 80%
    11:00 +11°C° 0 mm 4 mps 749 mmHg 75%
    12:00 +10°C° 0 mm 5 mps 749 mmHg 74%
    13:00 +12°C° 0 mm 5 mps 748 mmHg 74%
    14:00 +11°C° 0 mm 6 mps 747 mmHg 73%
    15:00 +11°C° 0 mm 6 mps 746 mmHg 74%
    16:00 +11°C° 0 mm 6 mps 745 mmHg 75%
    17:00 +12°C° 0 mm 5 mps 744 mmHg 76%
    18:00 +11°C° 0 mm 6 mps 744 mmHg 76%
    19:00 +11°C° 0 mm 6 mps 743 mmHg 75%
    20:00 +13°C° 0 mm 6 mps 743 mmHg 75%
    21:00 +13°C° 0 mm 6 mps 743 mmHg 75%
    22:00 +13°C° 0 mm 6 mps 742 mmHg 75%
    23:00 +13°C° 0 mm 6 mps 742 mmHg 74%

    27 October, Sunday

    Time Temperature Precipitation Wind Pressure Humidity
    00:00 +13°C° 0 mm 6 mps 742 mmHg 76%
    01:00 +13°C° 0 mm 6 mps 742 mmHg 78%
    02:00 +13°C° 0 mm 6 mps 742 mmHg 80%
    03:00 +13°C° 0.1 mm 6 mps 742 mmHg 81%
    04:00 +12°C° 0.1 mm 5 mps 742 mmHg 83%
    05:00 +12°C° 0.1 mm 5 mps 742 mmHg 84%
    06:00 +12°C° 0.4 mm 5 mps 742 mmHg 85%
    07:00 +12°C° 0.4 mm 5 mps 742 mmHg 85%
    08:00 +10°C° 0.4 mm 5 mps 742 mmHg 86%
    09:00 +11°C° 0.2 mm 4 mps 742 mmHg 85%
    10:00 +10°C° 0.2 mm 4 mps 743 mmHg 83%
    11:00 +10°C° 0.2 mm 3 mps 743 mmHg 82%
    12:00 +10°C° 0.1 mm 3 mps 743 mmHg 80%
    13:00 +10°C° 0.1 mm 3 mps 743 mmHg 78%
    14:00 +10°C° 0.1 mm 3 mps 743 mmHg 77%
    15:00 +9°C° 0 mm 3 mps 743 mmHg 77%
    16:00 +9°C° 0 mm 3 mps 743 mmHg 77%
    17:00 +8°C° 0 mm 3 mps 743 mmHg 77%
    18:00 +7°C° 0 mm 3 mps 744 mmHg 79%
    19:00 +7°C° 0 mm 3 mps 744 mmHg 80%
    20:00 +7°C° 0 mm 3 mps 744 mmHg 82%
    21:00 +7°C° 0 mm 3 mps 744 mmHg 83%
    22:00 +6°C° 0 mm 2 mps 744 mmHg 85%
    23:00 +6°C° 0 mm 2 mps 744 mmHg 87%

    28 October, Monday

    Time Temperature Precipitation Wind Pressure Humidity
    00:00 +6°C° 0 mm 2 mps 744 mmHg 88%
    01:00 +6°C° 0 mm 2 mps 744 mmHg 89%
    02:00 +5°C° 0 mm 2 mps 744 mmHg 90%
    03:00 +5°C° 0 mm 2 mps 743 mmHg 91%
    04:00 +5°C° 0 mm 2 mps 743 mmHg 92%
    05:00 +6°C° 0 mm 1 mps 742 mmHg 93%
    06:00 +5°C° 0 mm 2 mps 742 mmHg 93%
    07:00 +5°C° 0 mm 2 mps 742 mmHg 92%
    08:00 +5°C° 0 mm 2 mps 742 mmHg 92%
    09:00 +5°C° 0.2 mm 3 mps 742 mmHg 85%
    10:00 +6°C° 0.2 mm 4 mps 742 mmHg 78%
    11:00 +7°C° 0.2 mm 4 mps 742 mmHg 71%
    12:00 +7°C° 0.1 mm 4 mps 742 mmHg 71%
    13:00 +6°C° 0.1 mm 4 mps 742 mmHg 72%
    14:00 +6°C° 0.1 mm 4 mps 742 mmHg 73%
    15:00 +7°C° 0 mm 3 mps 742 mmHg 76%
    16:00 +7°C° 0 mm 3 mps 742 mmHg 79%
    17:00 +6°C° 0 mm 2 mps 742 mmHg 82%
    18:00 +6°C° 0.2 mm 2 mps 742 mmHg 84%
    19:00 +6°C° 0.2 mm 2 mps 743 mmHg 86%
    20:00 +6°C° 0.2 mm 2 mps 743 mmHg 89%
    21:00 +4°C° 0.4 mm 3 mps 743 mmHg 90%
    22:00 +4°C° 0.4 mm 3 mps 743 mmHg 92%
    23:00 +3°C° 0.4 mm 3 mps 743 mmHg 93%

    29 October, Tuesday

    Time Temperature Precipitation Wind Pressure Humidity
    00:00 +2°C° 1.2 mm 3 mps 743 mmHg 94%
    01:00 0°C° 1.2 mm 4 mps 744 mmHg 95%
    02:00 -1°C° 1.2 mm 4 mps 744 mmHg 95%
    03:00 -1°C° 0.2 mm 4 mps 744 mmHg 93%
    04:00 -1°C° 0.2 mm 4 mps 745 mmHg 90%
    05:00 -1°C° 0.2 mm 4 mps 745 mmHg 88%
    06:00 -2°C° 0 mm 4 mps 746 mmHg 87%
    07:00 -2°C° 0 mm 4 mps 747 mmHg 87%
    08:00 -3°C° 0 mm 4 mps 747 mmHg 86%
    09:00 -3°C° 0 mm 4 mps 748 mmHg 84%
    10:00 -2°C° 0 mm 4 mps 749 mmHg 81%
    11:00 -2°C° 0 mm 4 mps 749 mmHg 79%
    12:00 -2°C° 0.1 mm 4 mps 750 mmHg 77%
    13:00 -2°C° 0.1 mm 4 mps 750 mmHg 76%
    14:00 -2°C° 0.1 mm 4 mps 750 mmHg 75%
    15:00 -2°C° 0 mm 4 mps 751 mmHg 78%
    16:00 -2°C° 0 mm 4 mps 751 mmHg 81%
    17:00 -3°C° 0 mm 4 mps 751 mmHg 85%
    18:00 -2°C° 0 mm 3 mps 752 mmHg 84%
    19:00 -2°C° 0 mm 3 mps 752 mmHg 83%
    20:00 -2°C° 0 mm 3 mps 753 mmHg 82%
    21:00 -4°C° 0 mm 3 mps 753 mmHg 83%
    22:00 -4°C° 0 mm 3 mps 753 mmHg 84%
    23:00 -4°C° 0 mm 3 mps 754 mmHg 85%
    Show more